| time (UTC) | temp F | wind direction | speed MPH | gust MPH | rain 1hr in | rain 24hr in | rain mn in | humidity % | barometer mb |
| 20260903164504 | 87 | 125 | 2.0 | 7.0 | 0.00 | 0.02 | 0.02 | 81 | 1013.7 |
| 20260903163041 | 86 | 103 | 2.0 | 7.0 | 0.00 | 0.02 | 0.02 | 84 | 1013.8 |
| 20260903161515 | 85 | 145 | 2.0 | 5.0 | 0.00 | 0.02 | 0.02 | 87 | 1013.7 |
| 20260903160109 | 84 | 120 | 0.0 | 4.0 | 0.01 | 0.02 | 0.02 | 89 | 1013.7 |
| 20260903154536 | 83 | 150 | 0.0 | 2.0 | 0.01 | 0.02 | 0.02 | 90 | 1013.4 |
| 20260903153010 | 83 | 85 | 0.0 | 0.0 | 0.02 | 0.02 | 0.02 | 91 | 1013.5 |
| 20260903151600 | 82 | 85 | 0.0 | 1.0 | 0.02 | 0.02 | 0.02 | 91 | 1013.5 |
| 20260903150031 | 83 | 89 | 0.0 | 2.0 | 0.01 | 0.01 | 0.01 | 90 | 1013.5 |
| 20260903144607 | 83 | 89 | 0.0 | 3.0 | 0.01 | 0.01 | 0.01 | 90 | 1013.7 |
| 20260903143036 | 83 | 119 | 2.0 | 5.0 | 0.00 | 0.00 | 0.00 | 89 | 1013.9 |
| 20260903141512 | 83 | 122 | 4.0 | 9.0 | 0.00 | 0.00 | 0.00 | 86 | 1013.9 |
| 20260903140047 | 84 | 160 | 2.0 | 8.0 | 0.00 | 0.00 | 0.00 | 85 | 1013.9 |
| 20260903134513 | 84 | 191 | 2.0 | 8.0 | 0.00 | 0.00 | 0.00 | 85 | 1013.7 |
| 20260903133101 | 83 | 193 | 3.0 | 9.0 | 0.00 | 0.00 | 0.00 | 87 | 1013.9 |
| 20260903131525 | 83 | 149 | 0.0 | 5.0 | 0.00 | 0.00 | 0.00 | 87 | 1013.9 |
| 20260903130105 | 83 | 208 | 3.0 | 6.0 | 0.00 | 0.00 | 0.00 | 87 | 1013.4 |
| 20260903124543 | 83 | 237 | 4.0 | 6.0 | 0.00 | 0.00 | 0.00 | 87 | 1013.3 |
| 20260903123005 | 83 | 177 | 3.0 | 8.0 | 0.00 | 0.00 | 0.00 | 87 | 1013.0 |
| 20260903121548 | 83 | 143 | 4.0 | 7.0 | 0.00 | 0.00 | 0.00 | 87 | 1012.6 |
| 20260903120014 | 83 | 187 | 2.0 | 6.0 | 0.00 | 0.00 | 0.00 | 86 | 1012.8 |
| 20260903114558 | 83 | 190 | 2.0 | 8.0 | 0.00 | 0.00 | 0.00 | 86 | 1012.7 |
| 20260903113035 | 83 | 207 | 2.0 | 8.0 | 0.00 | 0.00 | 0.00 | 86 | 1012.6 |
| 20260903111503 | 83 | 185 | 4.0 | 11.0 | 0.00 | 0.00 | 0.00 | 85 | 1012.7 |
| 20260903110047 | 84 | 215 | 3.0 | 11.0 | 0.00 | 0.00 | 0.00 | 85 | 1012.7 |
| 20260903104514 | 83 | 214 | 3.0 | 9.0 | 0.00 | 0.00 | 0.00 | 86 | 1012.6 |
| 20260903103056 | 83 | 190 | 4.0 | 9.0 | 0.00 | 0.00 | 0.00 | 87 | 1012.5 |
| 20260903101531 | 83 | 186 | 3.0 | 9.0 | 0.00 | 0.00 | 0.00 | 87 | 1012.4 |
| 20260903100108 | 83 | 169 | 5.0 | 12.0 | 0.00 | 0.00 | 0.00 | 87 | 1012.2 |
| 20260903094538 | 83 | 155 | 5.0 | 10.0 | 0.00 | 0.00 | 0.00 | 87 | 1012.2 |
| 20260903093005 | 84 | 197 | 4.0 | 12.0 | 0.00 | 0.00 | 0.00 | 86 | 1012.3 |
| 20260903091551 | 84 | 187 | 4.0 | 12.0 | 0.00 | 0.00 | 0.00 | 86 | 1012.3 |
| 20260903090029 | 84 | 164 | 7.0 | 13.0 | 0.00 | 0.00 | 0.00 | 85 | 1012.4 |
| 20260903084600 | 84 | 171 | 3.0 | 14.0 | 0.00 | 0.00 | 0.00 | 86 | 1012.3 |
| 20260903083030 | 84 | 162 | 5.0 | 10.0 | 0.00 | 0.00 | 0.00 | 86 | 1012.2 |
| 20260903081505 | 83 | 195 | 5.0 | 9.0 | 0.00 | 0.00 | 0.00 | 86 | 1012.2 |
| 20260903080044 | 83 | 181 | 5.0 | 11.0 | 0.00 | 0.00 | 0.00 | 87 | 1012.1 |
| 20260903074515 | 83 | 193 | 5.0 | 12.0 | 0.00 | 0.00 | 0.00 | 86 | 1012.2 |
| 20260903073107 | 84 | 200 | 3.0 | 13.0 | 0.00 | 0.00 | 0.00 | 86 | 1012.2 |
| 20260903071535 | 84 | 209 | 4.0 | 9.0 | 0.00 | 0.00 | 0.00 | 86 | 1012.2 |
| 20260903070001 | 84 | 151 | 4.0 | 10.0 | 0.00 | 0.00 | 0.00 | 86 | 1012.4 |
| 20260903064547 | 84 | 239 | 4.0 | 8.0 | 0.00 | 0.00 | 0.00 | 85 | 1012.5 |
| 20260903063021 | 84 | 170 | 1.0 | 7.0 | 0.00 | 0.00 | 0.00 | 85 | 1012.8 |
| 20260903061607 | 84 | 205 | 3.0 | 9.0 | 0.00 | 0.00 | 0.00 | 85 | 1013.0 |
| 20260903060035 | 84 | 185 | 2.0 | 9.0 | 0.00 | 0.00 | 0.00 | 85 | 1013.2 |
| 20260903054506 | 84 | 179 | 2.0 | 7.0 | 0.00 | 0.00 | 0.00 | 85 | 1013.4 |
| 20260903053051 | 84 | 173 | 4.0 | 8.0 | 0.00 | 0.00 | 0.00 | 85 | 1013.4 |
| 20260903051518 | 85 | 150 | 4.0 | 8.0 | 0.00 | 0.00 | 0.00 | 84 | 1013.3 |
| 20260903050101 | 85 | 160 | 4.0 | 8.0 | 0.00 | 0.00 | 0.00 | 85 | 1013.4 |
| 20260903044533 | 85 | 108 | 4.0 | 11.0 | 0.00 | 0.00 | 0.00 | 85 | 1013.5 |
| 20260903043007 | 85 | 127 | 6.0 | 14.0 | 0.00 | 0.00 | 0.00 | 85 | 1013.3 |
| 20260903041553 | 85 | 158 | 6.0 | 11.0 | 0.00 | 0.00 | 0.00 | 85 | 1013.6 |
| 20260903040022 | 85 | 192 | 6.0 | 12.0 | 0.00 | 0.00 | 0.00 | 85 | 1013.5 |
| 20260903034607 | 85 | 207 | 4.0 | 17.0 | 0.00 | 0.00 | 0.00 | 85 | 1013.4 |
| 20260903033042 | 85 | 153 | 6.0 | 13.0 | 0.00 | 0.00 | 0.00 | 85 | 1013.4 |
| 20260903031510 | 85 | 160 | 6.0 | 12.0 | 0.00 | 0.00 | 0.00 | 85 | 1013.2 |
| 20260903030054 | 85 | 129 | 6.0 | 12.0 | 0.00 | 0.00 | 0.00 | 85 | 1013.0 |
| 20260903024526 | 85 | 192 | 8.0 | 13.0 | 0.00 | 0.00 | 0.00 | 85 | 1012.8 |
| 20260903023108 | 85 | 127 | 5.0 | 13.0 | 0.00 | 0.00 | 0.00 | 85 | 1012.7 |
| 20260903021545 | 86 | 147 | 3.0 | 10.0 | 0.00 | 0.00 | 0.00 | 83 | 1012.2 |
| 20260903020017 | 86 | 135 | 7.0 | 14.0 | 0.00 | 0.00 | 0.00 | 82 | 1012.2 |
| 20260903014601 | 86 | 100 | 4.0 | 10.0 | 0.00 | 0.00 | 0.00 | 80 | 1012.3 |
| 20260903013036 | 87 | 129 | 4.0 | 12.0 | 0.00 | 0.00 | 0.00 | 77 | 1012.1 |
| 20260903011505 | 87 | 115 | 2.0 | 13.0 | 0.00 | 0.00 | 0.00 | 76 | 1011.9 |
| 20260903010051 | 88 | 162 | 5.0 | 11.0 | 0.00 | 0.00 | 0.00 | 75 | 1011.3 |
| 20260903004533 | 89 | 131 | 10.0 | 23.0 | 0.00 | 0.00 | 0.00 | 71 | 1011.2 |
| 20260903003103 | 89 | 182 | 5.0 | 15.0 | 0.00 | 0.00 | 0.00 | 68 | 1011.3 |
| 20260903001535 | 90 | 160 | 5.0 | 14.0 | 0.00 | 0.00 | 0.00 | 67 | 1011.1 |
| 20260903000004 | 90 | 196 | 7.0 | 18.0 | 0.00 | 0.00 | 0.00 | 65 | 1010.7 |
| 20260902234554 | 91 | 164 | 5.0 | 9.0 | 0.00 | 0.00 | 0.00 | 66 | 1010.5 |
| 20260902233015 | 91 | 136 | 7.0 | 18.0 | 0.00 | 0.00 | 0.00 | 65 | 1010.6 |
| 20260902231608 | 92 | 165 | 6.0 | 11.0 | 0.00 | 0.00 | 0.00 | 64 | 1010.6 |
| 20260902230034 | 92 | 184 | 5.0 | 12.0 | 0.00 | 0.00 | 0.00 | 64 | 1010.4 |
| 20260902224501 | 93 | 162 | 6.0 | 10.0 | 0.00 | 0.00 | 0.00 | 64 | 1010.6 |
| 20260902223047 | 93 | 228 | 5.0 | 10.0 | 0.00 | 0.00 | 0.00 | 64 | 1010.5 |
| 20260902221524 | 93 | 197 | 6.0 | 14.0 | 0.00 | 0.00 | 0.00 | 65 | 1010.6 |
| 20260902214533 | 93 | 200 | 4.0 | 13.0 | 0.00 | 0.02 | 0.00 | 63 | 1010.6 |
| 20260902213004 | 93 | 141 | 5.0 | 11.0 | 0.00 | 0.02 | 0.00 | 63 | 1010.8 |
| 20260902211549 | 93 | 170 | 5.0 | 11.0 | 0.00 | 0.02 | 0.00 | 63 | 1010.8 |
| 20260902210029 | 93 | 149 | 6.0 | 13.0 | 0.00 | 0.02 | 0.00 | 63 | 1011.0 |
| 20260902204610 | 94 | 146 | 6.0 | 15.0 | 0.00 | 0.02 | 0.00 | 63 | 1011.1 |
| 20260902203048 | 94 | 219 | 3.0 | 9.0 | 0.00 | 0.02 | 0.00 | 63 | 1011.3 |
| 20260902201507 | 94 | 173 | 6.0 | 10.0 | 0.00 | 0.02 | 0.00 | 64 | 1011.4 |
| 20260902200056 | 94 | 181 | 4.0 | 9.0 | 0.00 | 0.02 | 0.00 | 64 | 1011.6 |
| 20260902194522 | 94 | 169 | 5.0 | 10.0 | 0.00 | 0.02 | 0.00 | 64 | 1011.9 |
| 20260902193106 | 94 | 279 | 3.0 | 13.0 | 0.00 | 0.02 | 0.00 | 64 | 1012.1 |
| 20260902191550 | 93 | 271 | 5.0 | 11.0 | 0.00 | 0.02 | 0.00 | 65 | 1012.2 |
| 20260902190009 | 93 | 242 | 3.0 | 8.0 | 0.00 | 0.02 | 0.00 | 66 | 1012.2 |
| 20260902184558 | 92 | 198 | 3.0 | 9.0 | 0.00 | 0.02 | 0.00 | 67 | 1012.5 |
| 20260902183023 | 92 | 198 | 5.0 | 10.0 | 0.00 | 0.02 | 0.00 | 67 | 1012.8 |
| 20260902181605 | 92 | 257 | 6.0 | 12.0 | 0.00 | 0.02 | 0.00 | 67 | 1013.1 |
| 20260902180032 | 91 | 190 | 4.0 | 14.0 | 0.00 | 0.02 | 0.00 | 70 | 1013.4 |
| 20260902174609 | 90 | 252 | 4.0 | 9.0 | 0.00 | 0.02 | 0.00 | 72 | 1013.7 |
| 20260902173036 | 89 | 276 | 4.0 | 11.0 | 0.00 | 0.02 | 0.00 | 74 | 1014.0 |
| 20260902171502 | 89 | 229 | 5.0 | 11.0 | 0.00 | 0.02 | 0.00 | 74 | 1014.2 |
| 20260902170049 | 89 | 226 | 5.0 | 14.0 | 0.00 | 0.02 | 0.00 | 75 | 1014.3 |